Terug naar catalogus

NADEZHDA 7

ActiefCommunicatiePO
NORAD 27534·PAYLOAD·🇷🇺 Russia

Gelanceerd Sep 26, 2002 vanaf Plesetsk Cosmodrome

Loading…

Volgende Passages (komende 24 uur)

TLE

VersSource: Space-Track

Epoch: Sep 14, 2026, 00:41 UTC

1 27534U 02046A   26257.02894094  .00000033  00000-0  18927-4 0  9998
2 27534  82.9305 265.1016 0037579  86.1343 302.4752 13.72968735200755

Volg NADEZHDA 7 in realtime met AllMySat

Download on the App Store